This is the latest recevied weather packets stored in our database for station/object DR0T. If no packets are shown the sender has not sent any weather packets the latest 10 day(s).
| Time | Temp. | Humidity | Pressure | Rain* | Wind** | Luminosity | Snow |
|---|---|---|---|---|---|---|---|
| 1777812152 | 19.44° C | 45% | 1015.9 hPa | 0 mm | - | - | - |
| 1777811850 | 20° C | 46% | 1016 hPa | 0 mm | - | - | - |
| 1777811549 | 19.44° C | 45% | 1016 hPa | 0 mm | - | - | - |
| 1777811248 | 20° C | 45% | 1016 hPa | 0 mm | - | - | - |
| 1777810948 | 20° C | 43% | 1016.1 hPa | 0 mm | - | - | - |
| 1777810649 | 19.44° C | 46% | 1016 hPa | 0 mm | - | - | - |
| 1777810343 | 19.44° C | 47% | 1016.1 hPa | 0 mm | - | - | - |
| 1777810042 | 19.44° C | 46% | 1016.1 hPa | 0 mm | - | - | - |
| 1777809743 | 19.44° C | 46% | 1016.2 hPa | 0 mm | - | - | - |
| 1777809440 | 20° C | 45% | 1016.2 hPa | 0 mm | - | - | - |
| 1777809139 | 20.56° C | 45% | 1016.3 hPa | 0 mm | - | - | - |
| 1777808837 | 20.56° C | 46% | 1016.2 hPa | 0 mm | - | - | - |
| 1777808536 | 20° C | 48% | 1016.3 hPa | 0 mm | - | - | - |
| 1777808260 | 19.44° C | 47% | 1016.4 hPa | 0 mm | - | - | - |
| 1777807953 | 19.44° C | 48% | 1016.3 hPa | 0 mm | - | - | - |
| 1777807652 | 19.44° C | 47% | 1016.4 hPa | 0 mm | - | - | - |
| 1777807352 | 19.44° C | 47% | 1016.4 hPa | 0 mm | - | - | - |
| 1777807049 | 18.89° C | 48% | 1016.4 hPa | 0 mm | - | - | - |
| 1777806748 | 18.89° C | 48% | 1016.4 hPa | 0 mm | - | - | - |
| 1777806444 | 18.89° C | 47% | 1016.3 hPa | 0 mm | - | - | - |
| 1777806143 | 18.89° C | 46% | 1016.5 hPa | 0 mm | - | - | - |
| 1777805841 | 18.89° C | 47% | 1016.4 hPa | 0 mm | - | - | - |
| 1777805540 | 18.89° C | 46% | 1016.7 hPa | 0 mm | - | - | - |
| 1777805239 | 18.89° C | 47% | 1016.6 hPa | 0 mm | - | - | - |
| 1777804938 | 18.89° C | 45% | 1016.6 hPa | 0 mm | - | - | - |
* Rain latest hour (hover to see other rain measurements)
** Current wind speed in m/s (hover to see current wind gust speed)